THOR BURNER 2 R/B, 2877

Orbit data source: Space-Track

THOR BURNER 2 R/B, 2877 is space debris in LEO originally from a launch on Thu, 29 Jun 1967 UTC launched from the Air Force Western Test Range (AFWTR). Debris objects in space refer to the collection of defunct objects orbiting the Earth. Examples of debris include non-operational satellites, rocket bodies, and fragments generated from explosions, collisions, or faulty payload assembly.

Loading next visibility...
Identifier
2877, 1967-065C
Orbit
LEO
Country
Flag of USUS
Related business
Manufacturer
BOKT/THKE
Mission
Spacecraft
Bus & Motor
STAR 13, STAR 13
Mass
58 kg wet, 25 kg dry
Launch date (UTC)
1967-06-29 (59 years ago)
Launch vehicle
Unknown
Launch site
Air Force Western Test Range (AFWTR)
Object type
Payload
Rocket body
Debris
Shape & HBR
BOX + CONE, 1.1 m
Radar Cross Section
Medium (>0.1 m² and <1 m²)

Expand to show TLE details & history
Last TLE update: 18 hours ago

TLE from 18 hours ago
0 THOR BURNER 2 R/B
1 02877U 67065C   26266.13403472  .00000015  00000-0  81249-2 0  9996
2 02877  89.9732 313.5193 0063295   2.5920 357.5235  8.36607952809173
Epoch: 2026-09-23T03:13Z
TLE epoch observation values (Epoch: 2026-09-23T03:13:00.599Z)
Latitude
-0.00001°
Longitude
-96.72272°
Altitude
3,809.109 km
Speed
6.276 km/s
True Right ascension
20h 54m 04s
True Declination
0° 00' 00"
Sunlit
Object was in daylight at epoch
Visualization orbit readout
Latitude
Unknown
Longitude
Unknown
Altitude
Unknown
Speed
Unknown
Apparent Right ascension
Unknown
Apparent Declination
Unknown
Sunlit
N/A
Visualization observer readout
Local Sidereal Time
14:48:43
Azimuth
Unknown
Elevation
Unknown
Doppler factor
Unknown
Orbital elements
Apogee altitude
3,934.505 km
Perigee altitude
3,804.779 km
Semi-major axis
10,247.779 km
Eccentricity
0.00633
Inclination
89.9732°
RAAN
313.5193°
Arg. of periapsis
2.592°
True anomaly
357.49191°
Mean anomaly
357.5235°
Eccentric anomaly
357.50773°
Mean motion
2.09218 °/min
Orbital period
172.07 mins
BSTAR
0.0081249
Loading maneuver chart data...
Computing Atmospheric mass density...
Loading historical data...
Loading historical data...
Loading historical data...
Loading historical data...
Loading historical data...
Loading historical data...
Loading historical data...
Other satellites on launch #65 in the year 1967 (1967-06-29 UTC)

Documentation

Showing up to 5 results
|